TimeCDT,TemperatureF,Dew PointF,Humidity,Sea Level PressureIn,VisibilityMPH,Wind Direction,Wind SpeedMPH,Gust SpeedMPH,PrecipitationIn,Events,Conditions,WindDirDegrees,DateUTC
12:53 AM,71.1,68.0,90,29.98,6.0,ESE,4.6,-,N/A,,Clear,120,2013-09-27 05:53:00
1:53 AM,70.0,66.9,90,29.99,6.0,SSE,3.5,-,N/A,,Clear,160,2013-09-27 06:53:00
2:53 AM,69.1,66.9,93,29.98,5.0,SSE,4.6,-,N/A,,Clear,150,2013-09-27 07:53:00
3:53 AM,66.9,64.9,93,29.99,3.0,Calm,Calm,-,N/A,,Clear,0,2013-09-27 08:53:00
4:00 AM,66.2,64.4,94,29.97,2.0,Calm,Calm,-,N/A,,Clear,0,2013-09-27 09:00:00
4:14 AM,66.2,64.4,94,29.97,1.2,Calm,Calm,-,N/A,,Partly Cloudy,0,2013-09-27 09:14:00
4:16 AM,66.2,64.4,94,29.97,0.8,Calm,Calm,-,N/A,,Mist,0,2013-09-27 09:16:00
4:30 AM,66.2,64.4,94,29.98,1.2,Calm,Calm,-,N/A,,Partly Cloudy,0,2013-09-27 09:30:00
4:33 AM,66.2,64.4,94,29.98,0.8,Calm,Calm,-,N/A,,Mist,0,2013-09-27 09:33:00
4:53 AM,66.0,64.9,96,30.00,0.8,Calm,Calm,-,N/A,,Mist,0,2013-09-27 09:53:00
5:00 AM,66.2,64.4,94,29.98,1.2,East,3.5,-,N/A,,Partly Cloudy,90,2013-09-27 10:00:00
5:07 AM,66.2,66.2,100,29.99,3.0,East,3.5,-,N/A,,Partly Cloudy,90,2013-09-27 10:07:00
5:38 AM,66.2,66.2,100,30.00,2.5,Calm,Calm,-,N/A,,Clear,0,2013-09-27 10:38:00
5:53 AM,66.9,64.9,93,30.02,2.5,Calm,Calm,-,N/A,,Clear,0,2013-09-27 10:53:00
6:10 AM,66.2,64.4,94,30.01,2.0,Calm,Calm,-,N/A,,Scattered Clouds,0,2013-09-27 11:10:00
6:18 AM,66.2,64.4,94,30.01,2.0,Calm,Calm,-,N/A,,Mostly Cloudy,0,2013-09-27 11:18:00
6:35 AM,68.0,66.2,94,30.01,1.0,East,5.8,-,N/A,,Overcast,100,2013-09-27 11:35:00
6:41 AM,68.0,66.2,94,30.02,0.2,ESE,4.6,-,N/A,Fog,Fog,110,2013-09-27 11:41:00
6:49 AM,68.0,66.2,94,30.02,0.2,East,4.6,-,N/A,Fog,Fog,100,2013-09-27 11:49:00
6:53 AM,68.0,66.0,93,30.04,0.2,East,5.8,-,N/A,Fog,Fog,100,2013-09-27 11:53:00
7:53 AM,69.1,68.0,96,30.06,0.2,SE,5.8,-,N/A,Fog,Fog,130,2013-09-27 12:53:00
8:16 AM,69.8,68.0,94,30.04,0.8,SE,4.6,-,N/A,,Mist,130,2013-09-27 13:16:00
8:25 AM,69.8,68.0,94,30.04,1.5,SE,5.8,-,N/A,,Overcast,140,2013-09-27 13:25:00
8:42 AM,69.8,68.0,94,30.04,2.0,ESE,5.8,-,N/A,,Overcast,120,2013-09-27 13:42:00
8:53 AM,70.0,69.1,97,30.07,2.5,ESE,6.9,-,N/A,,Overcast,120,2013-09-27 13:53:00
9:09 AM,71.6,69.8,94,30.05,3.0,ESE,6.9,-,N/A,,Overcast,120,2013-09-27 14:09:00
9:18 AM,71.6,69.8,94,30.05,4.0,SE,4.6,-,N/A,,Mostly Cloudy,130,2013-09-27 14:18:00
9:42 AM,73.4,69.8,88,30.05,5.0,SSE,5.8,-,N/A,,Scattered Clouds,150,2013-09-27 14:42:00
9:53 AM,75.0,69.1,82,30.07,6.0,SE,6.9,-,N/A,,Haze,140,2013-09-27 14:53:00
10:53 AM,79.0,68.0,69,30.07,9.0,SSE,5.8,-,N/A,,Clear,150,2013-09-27 15:53:00
11:53 AM,82.0,66.9,60,30.06,10.0,Calm,Calm,-,N/A,,Scattered Clouds,0,2013-09-27 16:53:00
12:53 PM,84.0,64.9,53,30.04,10.0,ESE,4.6,-,N/A,,Mostly Cloudy,110,2013-09-27 17:53:00
1:53 PM,86.0,64.9,49,30.01,10.0,ENE,8.1,-,N/A,,Overcast,70,2013-09-27 18:53:00
2:53 PM,86.0,62.1,44,29.99,10.0,East,5.8,-,N/A,,Scattered Clouds,100,2013-09-27 19:53:00
3:53 PM,87.1,62.1,43,29.98,10.0,SSE,8.1,-,N/A,,Partly Cloudy,150,2013-09-27 20:53:00
4:53 PM,87.1,62.1,43,29.98,10.0,SSE,8.1,-,N/A,,Partly Cloudy,160,2013-09-27 21:53:00
5:53 PM,84.0,62.1,47,29.98,10.0,SE,6.9,-,N/A,,Clear,130,2013-09-27 22:53:00
6:53 PM,77.0,66.0,69,29.98,10.0,SE,4.6,-,N/A,,Clear,140,2013-09-27 23:53:00
7:53 PM,75.0,66.0,73,30.00,10.0,ESE,4.6,-,N/A,,Partly Cloudy,110,2013-09-28 00:53:00
8:53 PM,73.0,66.0,79,30.02,10.0,ESE,3.5,-,N/A,,Clear,120,2013-09-28 01:53:00
9:53 PM,72.0,64.9,78,30.03,10.0,SE,5.8,-,N/A,,Clear,130,2013-09-28 02:53:00
10:53 PM,72.0,64.0,76,30.03,10.0,SE,6.9,-,N/A,,Clear,130,2013-09-28 03:53:00
11:53 PM,71.1,64.0,78,30.04,10.0,SE,6.9,-,N/A,,Clear,130,2013-09-28 04:53:00